Regional Weather Roundup
Issued by NWS Albany, NY

Home | Current Version | Previous Version | Text Only | Print | Product List | Glossary On
Versions: 1 2 3 4 5 6 7 8 9 10 11 12 13 14 15 16 17 18 19 20 21 22 23 24 25 26 27 28 29 30 31 32 33 34 35 36 37 38 39 40 41 42 43 44 45 46 47 48 49 50
000
ASUS41 KALY 070210
RWRALY

NEW YORK STATE HOURLY WEATHER ROUNDUP
NATIONAL WEATHER SERVICE ALBANY NY
900 PM EST FRI MAR 06 2015

NOTE: "FAIR" INDICATES FEW OR NO CLOUDS BELOW 12,000 FEET WITH NO
SIGNIFICANT WEATHER AND/OR NO OBSTRUCTIONS TO VISIBILITY.

NYZ032-033-038>043-046>054-057>066-NYZ062>081-070300-
EAST


CITY           SKY/WX    TMP DP  RH WIND       PRES   REMARKS
ALBANY         MOCLDY    17   2  51 CALM      30.31F
GLENS FALLS    PTCLDY    10  -2  58 CALM      30.30F
POUGHKEEPSIE   PTCLDY    23   5  46 CALM      30.34F
NEWBURGH       PTCLDY    21   5  49 CALM      30.33F
MONTGOMERY     FAIR      21   4  47 SW15      30.31F WCI   8
WHITE PLAINS   PTCLDY    21   6  52 SW5       30.33F WCI  15
ISLIP          MOCLDY    20   8  60 S5        30.38F WCI  13
NEW YORK CITY  MOCLDY    24   8  50 SW10      30.38F WCI  14
CENTRAL PARK   MOCLDY    23   6  48 W10G16    30.39F WCI  12
$$

NYZ005>009-017-018-044>046-055-056-070300-
CENTRAL


CITY           SKY/WX    TMP DP  RH WIND       PRES   REMARKS
FULTON         MOCLDY    14   0  53 E3        30.27F
SYRACUSE       CLOUDY    16   3  56 E6        30.26F WCI   7
ROME           MOCLDY    10   2  69 CALM      30.30F
ELMIRA         PTCLDY    15   3  59 SW5       30.24F WCI   8
BINGHAMTON     MOCLDY    16   0  49 S7        30.20F WCI   6
MONTICELLO     PTCLDY    16  -2  45 CALM      30.25S
$$

NYZ026>034-041>043-070300-
NORTH


CITY           SKY/WX    TMP DP  RH WIND       PRES   REMARKS
WATERTOWN      PTCLDY    18   1  47 S9        30.24F WCI   7
FORT DRUM      NOT AVBL
MASSENA        CLEAR     13   0  56 SW14      30.23F WCI  -2
SARANAC LAKE   CLEAR      9  -2  61 SW10      30.12F WCI  -5
PLATTSBURGH    CLEAR     13  -1  54 SW3       30.23F
$$

NYZ001>004-010>016-019>021-070300-
WEST


CITY           SKY/WX    TMP DP  RH WIND       PRES   REMARKS
NIAGARA FALLS  MOCLDY    16   9  74 SW15      30.23F WCI   1
BUFFALO        MOCLDY    16   9  74 SW12      30.23F WCI   3
DUNKIRK        PTCLDY    13   9  84 SW5       30.26F WCI   5
JAMESTOWN      CLEAR     16   1  53 SW9       30.19F WCI   4
WELLSVILLE     PTCLDY    17   0  47 SW15      30.17F WCI   2
ROCHESTER      MOCLDY    17   5  59 SW5       30.24F WCI  10
PENN YAN       PTCLDY    16   3  56 SW3       30.23F
$$

             KEY
       WCI = WIND CHILL INDEX
       VSB = VISIBILITY
       HX  = HEAT INDEX
$$


USA.gov is the U.S. government's official web portal to all federal, state and local government web resources and services.